Powrót do katalogu

STARLINK-11137

AktywnyŁącznośćVLEO
NORAD 60050·PAYLOAD·🇺🇸 United States

Wystrzelony Jun 8, 2024 z Vandenberg Space Force Base

Loading…

Następne Przeloty (najbliższe 24 godziny)

TLE

ŚwieżeSource: CelesTrak SupGP

Epoka: Sep 14, 2026, 21:33 UTC

1 60050C 24112N   26257.89840278  .00073437  00000+0  60483-3 0  2573
2 60050  53.1573  53.2428 0001070  71.4553 244.1309 15.69676602    16

Śledź STARLINK-11137 w czasie rzeczywistym z AllMySat

Download on the App Store